Weather History for Plattsmouth, NE

Change the Weather History Date:

Thursday, May 9, 2013

  Actual Average (KOFF) Record (KOFF)
Temperature  
Mean Temperature 62 °F -  
Max Temperature 68 °F 69 °F 95 °F (2011)
Min Temperature 56 °F 49 °F 42 °F (1997)
Degree Days  
Heating Degree Days 3    
Growing Degree Days 12 (Base 50)    
Moisture  
Dew Point 57 °F    
Average Humidity 84    
Maximum Humidity 97    
Minimum Humidity 60    
Precipitation  
Precipitation 0.08 in - - ()
Sea Level Pressure  
Sea Level Pressure 29.92 in    
Wind  
Wind Speed 8 mph (NNW)    
Max Wind Speed 18 mph    
Max Gust Speed 23 mph    
Visibility 9 miles    
Events Rain , Thunderstorm    
Averages and records for this station are not official NWS values.
T = Trace of Precipitation, MM = Missing Value Source: NWS Daily Summary

Daily Weather History Graph

Daily Weather History Graph

Search for Another Location

Airport:

Trip Planner

Search our weather history database for the weather conditions in past years. The results will help you decide how hot, cold, wet, or windy it might be!

Date:

Astronomy

May. 09, 2013 Rise Set
Actual Time 6:11 AM CDT 8:28 PM CDT
Civil Twilight 5:41 AM CDT 8:59 PM CDT
Nautical Twilight 5:03 AM CDT 9:37 PM CDT
Astronomical Twilight 4:21 AM CDT 10:19 PM CDT
Moon 5:57 AM CDT (5/9) 8:24 PM CDT (5/9)
Length of Visible Light 15h 18m
Length of Day
14h 17m
Waning Crescent, 0% of the Moon is Illuminated
May 9
Waning Crescent
May 9
New
May 17
First Quarter
May 24
Full
May 31
Last Quarter

Hourly Weather History & Observations

Time (CDT) Temp. Dew Point Humidity Pressure Visibility Wind Dir Wind Speed Gust Speed Precip Events Conditions
12:55 AM 60.4 °F 57.4 °F 90% 29.89 in 10.0 mi NNE 5.8 mph - N/A Thunderstorm Mostly Cloudy
1:15 AM 60.3 °F 57.4 °F 90% 29.89 in 10.0 mi NNE 4.6 mph - N/A   Overcast
1:35 AM 60.8 °F 57.6 °F 89% 29.89 in 10.0 mi NE 5.8 mph - N/A   Overcast
1:55 AM 60.8 °F 57.7 °F 90% 29.89 in 10.0 mi ENE 3.5 mph - N/A Thunderstorm Overcast
2:15 AM 60.4 °F 57.7 °F 91% 29.88 in 10.0 mi ENE 4.6 mph - N/A Rain Light Rain
2:55 AM 59.9 °F 56.7 °F 89% 29.90 in 5.0 mi North 5.8 mph - 0.07 in Rain , Thunderstorm Heavy Thunderstorms and Rain
3:35 AM 58.6 °F 56.3 °F 92% 29.88 in 10.0 mi NNE 8.1 mph - 0.01 in   Overcast
3:55 AM 57.7 °F 56.1 °F 94% 29.88 in 10.0 mi North 5.8 mph - 0.01 in   Overcast
4:35 AM 57.2 °F 56.1 °F 96% 29.86 in 7.0 mi North 6.9 mph - N/A   Drizzle
5:15 AM 57.4 °F 56.5 °F 97% 29.86 in 10.0 mi NNE 9.2 mph - N/A   Overcast
6:15 AM 57.2 °F 56.5 °F 97% 29.86 in 10.0 mi North 8.1 mph - N/A   Overcast
6:35 AM 57.2 °F 56.3 °F 97% 29.86 in 10.0 mi NE 10.4 mph - N/A   Overcast
7:55 AM 56.8 °F 55.9 °F 97% 29.89 in 7.0 mi NNE 6.9 mph - N/A   Overcast
8:15 AM 57.2 °F 56.1 °F 96% 29.89 in 7.0 mi North 4.6 mph - N/A   Overcast
8:35 AM 57.2 °F 55.9 °F 96% 29.90 in 5.0 mi NNW 4.6 mph - N/A   Overcast
9:55 AM 58.5 °F 57.0 °F 95% 29.92 in 10.0 mi North 5.8 mph - N/A   Overcast
10:35 AM 59.9 °F 57.2 °F 91% 29.93 in 10.0 mi North 6.9 mph - N/A   Overcast
10:55 AM 60.8 °F 57.4 °F 88% 29.93 in 10.0 mi North 6.9 mph - N/A   Overcast
11:15 AM 60.8 °F 56.7 °F 86% 29.93 in 10.0 mi North 8.1 mph - N/A   Overcast
11:35 AM 61.7 °F 57.2 °F 85% 29.93 in 10.0 mi NNW 6.9 mph - N/A   Overcast
12:15 PM 63.0 °F 57.7 °F 83% 29.94 in 10.0 mi NNW 10.4 mph - N/A   Overcast
12:35 PM 63.0 °F 57.6 °F 82% 29.94 in 10.0 mi NNW 12.7 mph - N/A   Overcast
12:55 PM 63.7 °F 57.7 °F 81% 29.93 in 10.0 mi NNW 11.5 mph 16.1 mph N/A   Overcast
1:15 PM 63.3 °F 57.6 °F 81% 29.93 in 10.0 mi NNW 11.5 mph - N/A   Overcast
1:35 PM 64.6 °F 57.9 °F 79% 29.93 in 10.0 mi NNW 11.5 mph - N/A   Overcast
1:55 PM 63.7 °F 57.6 °F 80% 29.93 in 7.0 mi NW 11.5 mph - N/A   Overcast
2:15 PM 63.9 °F 57.0 °F 78% 29.93 in 10.0 mi NW 11.5 mph - N/A   Overcast
2:35 PM 65.5 °F 57.0 °F 74% 29.92 in 10.0 mi NNW 6.9 mph - N/A   Overcast
3:15 PM 66.6 °F 57.0 °F 71% 29.92 in 10.0 mi NNW 12.7 mph 16.1 mph N/A   Overcast
3:35 PM 66.2 °F 56.5 °F 71% 29.92 in 10.0 mi NNW 9.2 mph - N/A   Overcast
3:55 PM 66.7 °F 55.9 °F 68% 29.91 in 10.0 mi NW 9.2 mph - N/A   Mostly Cloudy
4:15 PM 68.0 °F 56.1 °F 66% 29.91 in 7.0 mi NW 9.2 mph - N/A   Scattered Clouds
4:35 PM 68.2 °F 54.7 °F 62% 29.90 in 10.0 mi NW 9.2 mph - N/A   Scattered Clouds
4:55 PM 67.8 °F 54.3 °F 62% 29.91 in 10.0 mi NW 10.4 mph - N/A   Clear
5:15 PM 68.9 °F 54.3 °F 60% 29.91 in 10.0 mi WNW 11.5 mph 17.3 mph N/A   Scattered Clouds
5:35 PM 67.1 °F 55.4 °F 66% 29.91 in 10.0 mi NW 15.0 mph - N/A   Clear
5:55 PM 68.9 °F 55.0 °F 61% 29.92 in 10.0 mi NW 18.4 mph 23.0 mph N/A   Mostly Cloudy
6:15 PM 63.7 °F 56.1 °F 76% 29.92 in 10.0 mi NNW 15.0 mph 18.4 mph N/A Rain Light Rain
6:35 PM 62.6 °F 56.7 °F 81% 29.93 in 10.0 mi NNW 10.4 mph 16.1 mph N/A   Mostly Cloudy
6:55 PM 62.2 °F 55.8 °F 79% 29.93 in 10.0 mi North 9.2 mph - N/A   Scattered Clouds
7:15 PM 61.7 °F 56.3 °F 82% 29.94 in 10.0 mi North 6.9 mph - N/A   Scattered Clouds
7:35 PM 61.3 °F 57.0 °F 86% 29.94 in 10.0 mi NNW 5.8 mph - N/A   Mostly Cloudy
7:55 PM 61.2 °F 57.2 °F 87% 29.94 in 10.0 mi North 8.1 mph - N/A   Overcast
8:15 PM 61.0 °F 56.7 °F 86% 29.95 in 10.0 mi North 8.1 mph - N/A   Overcast
8:35 PM 60.8 °F 56.3 °F 85% 29.96 in 10.0 mi North 13.8 mph - N/A   Overcast
8:55 PM 60.4 °F 56.5 °F 87% 29.96 in 10.0 mi North 8.1 mph - N/A   Overcast
9:15 PM 60.4 °F 55.9 °F 85% 29.96 in 10.0 mi North 10.4 mph - N/A   Overcast
9:35 PM 60.1 °F 55.9 °F 86% 29.97 in 10.0 mi NNW 6.9 mph - N/A   Overcast
9:55 PM 59.5 °F 55.6 °F 87% 29.97 in 10.0 mi NNW 5.8 mph - N/A   Mostly Cloudy
10:15 PM 59.2 °F 55.6 °F 88% 29.99 in 10.0 mi NNW 5.8 mph - N/A   Mostly Cloudy
10:55 PM 59.0 °F 56.3 °F 91% 29.99 in 7.0 mi NNW 8.1 mph - N/A   Overcast
11:15 PM 59.0 °F 56.3 °F 91% 29.99 in 7.0 mi NNW 6.9 mph - N/A Rain Light Rain
11:35 PM 58.8 °F 55.9 °F 90% 29.98 in 7.0 mi North 8.1 mph - N/A   Overcast